{"data":{"norad_id":51971,"epoch":"2026-05-25T01:27:43.691040Z","epoch_age_seconds":69719,"freshness":"FRESH","line1":"1 51971U 22025R   26145.06092235 -.00001769  00000+0 -45217-4 0  9996","line2":"2 51971  53.1620  29.2859 0001663  88.6250 271.4942 15.31708307232711","mean_motion":15.31708307,"eccentricity":0.0001663,"inclination_deg":53.162,"raan_deg":29.2859,"arg_perigee_deg":88.625,"mean_anomaly_deg":271.4942,"bstar":-4.5217e-5,"rev_number":23271,"period_min":94.012678094067,"perigee_km":469.57626847654,"apogee_km":471.8541967291,"semimajor_km":6848.8522326028,"source":"CELESTRAK","updated_at":"2026-05-25T13:38:16.993714Z"}}